Location: R�serve Fauniques des Laurentides
(47.3100°N, 71.1900°W)
Time: 00:59:59
(UTC-04:00)

Amateur Radio Satellites - All Passes

Search period start: 23 May 2017 00:29
Search period end: 24 May 2017 00:29
Location: R�serve Fauniques des Laurentides, 47.3100°N, 71.1900°W

Satellite Date Start Highest point End Downlink Frequencies (MHz)
Time Altitude Azimuth
ESTCUBE 1 23 May 00:31:09 00:34:27 20° 268° (W) 00:37:46 437.505/2401.250
SPROUT 23 May 00:35:50 00:39:58 53° 260° (W) 00:44:08 437.525
50 SAT 23 May 00:37:06 00:40:34 86° 263° (W) 00:44:03 437.505
FO-29 23 May 00:37:17 00:42:08 26° 299° (WNW) 00:47:26 435.910
NANOSAT C BR1 23 May 00:37:47 00:42:00 64° 102° (ESE) 00:46:13 145.865
POLYITAN 1 23 May 00:38:05 00:42:21 71° 102° (ESE) 00:46:37 437.675
QB50P2 23 May 00:46:30 00:50:47 87° 284° (WNW) 00:55:03 145.880/145.840
SO-50 23 May 00:50:40 00:55:02 43° 315° (NW) 00:59:23 436.795
DUCHIFAT 1 23 May 00:50:55 00:55:10 80° 103° (ESE) 00:59:24 145.980
DX 1 23 May 00:57:54 01:02:16 81° 255° (WSW) 01:06:39 434.975-435.025
UKube-1 23 May 00:59:12 01:03:31 74° 73° (ENE) 01:07:50 .
EO-79 23 May 01:25:32 01:29:28 38° 291° (WNW) 01:33:25 145.935-145.965
ISS 23 May 01:26:24 01:29:30 36° 360° (N) 01:32:35 437.550
BUGSAT 1 23 May 01:26:42 01:30:46 62° 102° (ESE) 01:34:52 437.445
ITUPSAT 1 23 May 01:30:30 01:33:46 19° 59° (ENE) 01:37:04 437.325
Tancredo 1 23 May 01:36:45 01:39:39 36° 6° (N) 01:42:32 437.200
Oscar 19 23 May 01:41:43 01:46:24 33° 96° (E) 01:51:01 437.125/150
VELOX 1 23 May 01:47:56 01:49:30 12° 272° (W) 01:51:03 145.980
BEESAT 23 May 02:05:39 02:09:59 37° 67° (ENE) 02:14:22 436.000
RS-15 23 May 02:08:20 02:19:08 40° 107° (ESE) 02:30:07 29.354- 29.394
YUBILEINY 23 May 02:10:15 02:18:59 85° 279° (W) 02:27:50 435.215
NANOSAT C BR1 23 May 02:14:45 02:17:14 15° 300° (WNW) 02:19:44 145.865
POLYITAN 1 23 May 02:15:19 02:17:37 14° 300° (WNW) 02:19:54 437.675
Gurwin Techsat 1B 23 May 02:24:08 02:29:17 48° 99° (E) 02:34:25 435.225
QB50P2 23 May 02:24:34 02:25:53 11° 303° (WNW) 02:27:12 145.880/145.840
MOZHAYETS 4 23 May 02:25:59 02:30:00 31° 66° (ENE) 02:34:04
DUCHIFAT 1 23 May 02:28:20 02:30:15 13° 301° (WNW) 02:32:09 145.980
AO-7 23 May 02:32:21 02:35:57 13° 84° (E) 02:39:33 .
SO-50 23 May 02:34:28 02:36:39 13° 338° (NNW) 02:38:49 436.795
UKube-1 23 May 02:38:14 02:40:03 12° 271° (W) 02:41:52 .
CUBESAT XI-V 23 May 03:02:02 03:04:51 16° 59° (ENE) 03:07:40 437.345
ISS 23 May 03:03:04 03:06:21 62° 20° (NNE) 03:09:36 437.550
BUGSAT 1 23 May 03:03:19 03:05:41 15° 299° (WNW) 03:08:04 437.445
ITUPSAT 1 23 May 03:06:24 03:11:08 65° 258° (WSW) 03:15:55 437.325
Tancredo 1 23 May 03:12:34 03:15:39 89° 207° (SSW) 03:18:44 437.200
PCSat 23 May 03:20:40 03:24:49 21° 35° (NE) 03:28:56 145.827
Oscar 19 23 May 03:21:01 03:25:45 37° 294° (WNW) 03:30:26 437.125/150
BEESAT 23 May 03:43:41 03:47:49 29° 265° (W) 03:51:59 436.000
KKS-1 23 May 03:49:47 03:53:49 35° 67° (ENE) 03:57:52 437.445
MOZHAYETS 4 23 May 04:02:57 04:07:06 33° 264° (W) 04:11:17
Gurwin Techsat 1B 23 May 04:04:33 04:08:59 28° 298° (WNW) 04:13:25 435.225
O/OREOS (USA 219) 23 May 04:04:41 04:08:04 20° 102° (ESE) 04:11:27 437.305
YUBILEINY 23 May 04:10:49 04:17:15 22° 303° (WNW) 04:23:46 435.215
ITAMSAT 1 23 May 04:12:52 04:18:05 68° 103° (ESE) 04:23:16 435.822/435.867
RS-15 23 May 04:18:37 04:30:52 75° 312° (NW) 04:43:19 29.354- 29.394
AO-7 23 May 04:22:05 04:30:25 64° 105° (ESE) 04:38:41 .
STARS 23 May 04:32:25 04:36:32 42° 69° (ENE) 04:40:40 437.465
CUBESAT XI-V 23 May 04:36:55 04:41:38 76° 258° (WSW) 04:46:23 437.345
ISS 23 May 04:39:48 04:42:41 28° 218° (SW) 04:45:33 437.550
Tancredo 1 23 May 04:49:08 04:51:03 15° 223° (SW) 04:52:58 437.200
AO-85 23 May 04:50:29 04:52:48 15° 112° (ESE) 04:55:05 145.980
PCSat 23 May 05:03:32 05:09:00 86° 55° (NE) 05:14:27 145.827
KKS-1 23 May 05:26:42 05:30:26 26° 265° (W) 05:34:12 437.445
CUTE-I 23 May 05:40:30 05:42:30 12° 86° (E) 05:44:30 437.470
O/OREOS (USA 219) 23 May 05:42:38 05:47:07 51° 300° (WNW) 05:51:37 437.305
XW-2D 23 May 05:46:16 05:47:42 12° 88° (E) 05:49:07 145.860 - 145.880
ITAMSAT 1 23 May 05:53:19 05:57:03 20° 302° (WNW) 06:00:47 435.822/435.867
XW-2B 23 May 05:53:34 05:55:36 14° 90° (E) 05:57:37 145.730 - 145.750
STRAND 1 23 May 05:58:33 06:02:24 22° 60° (ENE) 06:06:17 437.568
SO-50 23 May 05:58:41 06:01:36 16° 28° (NNE) 06:04:30 436.795
XW-2C 23 May 06:06:22 06:09:12 19° 92° (E) 06:12:01 145.795 - 145.815
XW-2F 23 May 06:08:32 06:11:22 19° 92° (E) 06:14:11 145.980 - 146.000
STARS 23 May 06:09:41 06:13:03 22° 267° (W) 06:16:27 437.465
AO-7 23 May 06:15:23 06:22:46 37° 305° (NW) 06:30:10 .
BEESAT 2 23 May 06:19:11 06:21:14 14° 110° (ESE) 06:23:17 435.950
NUDT-PHONESAT 23 May 06:20:16 06:23:12 21° 93° (E) 06:26:06 437.300
KAITUO 1B 23 May 06:22:56 06:26:01 23° 94° (E) 06:29:04 145.475/437.950
DOVE 4 23 May 06:25:15 06:29:20 53° 100° (E) 06:33:26 437.250
AO-85 23 May 06:28:39 06:32:45 67° 309° (NW) 06:36:43 145.980
HO-68 23 May 06:29:12 06:31:35 12° 83° (E) 06:33:59 435.675
M-CUBED/EXP-1 PRIME 23 May 06:33:17 06:35:47 16° 56° (ENE) 06:38:11 437.505
RS-15 23 May 06:34:33 06:45:49 38° 342° (NNW) 06:57:04 29.354- 29.394
LilacSat-2 23 May 06:39:09 06:42:55 46° 99° (E) 06:46:39 437.200
BEESAT 3 23 May 06:46:27 06:50:22 64° 123° (ESE) 06:54:22 437.485
PCSat 23 May 06:48:27 06:51:40 16° 256° (WSW) 06:54:53 145.827
CUTE-I 23 May 07:18:00 07:23:23 82° 104° (ESE) 07:28:43 437.470
XW-2D 23 May 07:18:28 07:22:18 63° 287° (WNW) 07:26:07 145.860 - 145.880
XW-2B 23 May 07:26:20 07:30:07 53° 288° (WNW) 07:33:53 145.730 - 145.750
STRAND 1 23 May 07:36:11 07:41:11 59° 259° (W) 07:46:15 437.568
SO-50 23 May 07:38:23 07:42:54 66° 50° (NE) 07:47:24 436.795
XW-2C 23 May 07:39:57 07:43:32 37° 290° (WNW) 07:47:06 145.795 - 145.815
XW-2F 23 May 07:42:04 07:45:38 37° 290° (WNW) 07:49:11 145.980 - 146.000
SEEDS 23 May 07:44:59 07:48:25 24° 93° (E) 07:51:50 437.485
XW-2A 23 May 07:53:34 07:56:47 35° 98° (E) 07:59:59 145.665 - 145.685
NUDT-PHONESAT 23 May 07:53:46 07:57:10 33° 291° (WNW) 08:00:35 437.300
BEESAT 2 23 May 07:54:28 07:58:26 72° 308° (NW) 08:02:30 435.950
KAITUO 1B 23 May 07:56:40 08:00:04 31° 291° (WNW) 08:03:25 145.475/437.950
DOVE 4 23 May 08:04:02 08:06:40 17° 298° (WNW) 08:09:19 437.250
M-CUBED/EXP-1 PRIME 23 May 08:05:33 08:09:51 67° 251° (WSW) 08:13:52 437.505
AO-7 23 May 08:10:43 08:13:09 12° 330° (NNW) 08:15:34 .
AO-85 23 May 08:11:46 08:13:52 14° 330° (NNW) 08:15:57 145.980
HO-68 23 May 08:13:35 08:20:46 64° 103° (ESE) 08:27:53 435.675
LilacSat-2 23 May 08:14:16 08:16:52 17° 297° (WNW) 08:19:28 437.200
AO-73 23 May 08:14:20 08:16:33 13° 88° (E) 08:18:45 145.935
CUBEBUG 2 23 May 08:19:15 08:23:33 42° 98° (E) 08:27:56 437.445
CUTE 1.7 + AOD 2 23 May 08:23:01 08:27:20 88° 92° (E) 08:31:36 437.475
ZACube-1 23 May 08:25:06 08:28:18 19° 91° (E) 08:31:32 437.345
BEESAT 3 23 May 08:25:15 08:28:20 21° 324° (NW) 08:31:27 437.485
UWE-3 23 May 08:38:04 08:42:21 41° 98° (E) 08:46:43 435.000/436.395/437.385
RS-15 23 May 08:51:16 09:02:33 38° 16° (NNE) 09:13:30 29.354- 29.394
AAUSAT CUBESAT 2 23 May 08:56:16 09:00:25 64° 101° (E) 09:04:31 437.432
TIGRISAT 23 May 08:58:22 09:01:49 24° 64° (ENE) 09:05:19 435.000
CUTE-I 23 May 08:59:20 09:02:47 18° 303° (WNW) 09:06:14 437.470
NO-84 23 May 09:03:37 09:05:50 14° 126° (SE) 09:08:01 435.350 FM
FO-29 23 May 09:08:18 09:13:01 37° 65° (ENE) 09:17:50 435.910
PRISM 23 May 09:12:25 09:16:24 46° 71° (ENE) 09:20:23 437.425
SO-50 23 May 09:19:51 09:22:53 18° 248° (WSW) 09:25:56 436.795
SEEDS 23 May 09:20:19 09:24:12 36° 291° (WNW) 09:28:03 437.485
XW-2A 23 May 09:27:00 09:29:17 17° 295° (WNW) 09:31:34 145.665 - 145.685
Oscar 11 23 May 09:27:05 09:31:24 54° 100° (E) 09:35:39 .
UNISAT 6 23 May 09:28:04 09:32:11 50° 71° (ENE) 09:36:24 437.425
BEESAT 2 23 May 09:34:33 09:36:56 15° 330° (NNW) 09:39:19 435.950
AO-73 23 May 09:48:46 09:53:16 75° 286° (WNW) 09:57:50 145.935
DELFI C3 23 May 09:51:15 09:54:39 27° 95° (E) 09:58:01 145.870
CUBEBUG 2 23 May 09:56:20 09:59:57 25° 295° (WNW) 10:03:40 437.445
ZACube-1 23 May 10:00:28 10:04:52 53° 288° (WNW) 10:09:19 437.345
CUTE 1.7 + AOD 2 23 May 10:00:55 10:02:29 12° 302° (WNW) 10:04:04 437.475
HO-68 23 May 10:01:54 10:08:04 32° 303° (WNW) 10:14:12 435.675
QB50P2 23 May 10:08:51 10:10:44 13° 59° (ENE) 10:12:37 145.880/145.840
DUCHIFAT 1 23 May 10:13:31 10:14:31 11° 57° (ENE) 10:15:31 145.980
UWE-3 23 May 10:14:55 10:18:37 25° 295° (WNW) 10:22:22 435.000/436.395/437.385
YUBILEINY 23 May 10:21:33 10:26:03 15° 49° (NE) 10:30:32 435.215
AAUSAT CUBESAT 2 23 May 10:33:04 10:35:23 15° 299° (WNW) 10:37:42 437.432
TIGRISAT 23 May 10:34:23 10:38:21 37° 263° (W) 10:42:22 435.000
NO-84 23 May 10:38:34 10:42:53 70° 143° (SE) 10:47:00 435.350 FM
EO-79 23 May 10:45:32 10:48:59 26° 66° (ENE) 10:52:29 145.935-145.965
PRISM 23 May 10:49:04 10:51:55 18° 268° (W) 10:54:47 437.425
EO-88 23 May 10:52:03 10:55:46 82° 285° (WNW) 10:59:27 145.990 - 145.960
FO-29 23 May 10:53:40 10:58:15 31° 265° (W) 11:02:55 435.910
AIST 2D 23 May 11:02:05 11:05:34 66° 74° (ENE) 11:09:05 435.315
Oscar 11 23 May 11:04:07 11:07:09 19° 298° (WNW) 11:10:10 .
RS-15 23 May 11:05:11 11:17:34 73° 47° (NE) 11:29:19 29.354- 29.394
UNISAT 6 23 May 11:06:20 11:09:13 18° 269° (W) 11:12:09 437.425
DELFI C3 23 May 11:26:01 11:29:23 27° 293° (WNW) 11:32:44 145.870
Oscar 19 23 May 11:26:23 11:28:11 12° 52° (NE) 11:29:59 437.125/150
AO-73 23 May 11:27:40 11:28:44 11° 304° (WNW) 11:29:47 145.935
NANOSAT C BR1 23 May 11:32:29 11:36:38 70° 73° (ENE) 11:40:49 145.865
POLYITAN 1 23 May 11:33:17 11:37:28 79° 76° (ENE) 11:41:42 437.675
QB50P2 23 May 11:41:44 11:45:56 79° 258° (WSW) 11:50:09 145.880/145.840
DUCHIFAT 1 23 May 11:45:19 11:49:29 86° 75° (ENE) 11:53:41 145.980
LO-87 23 May 11:48:03 11:51:35 62° 101° (E) 11:55:06 145.935 - 145.965
VELOX 1 23 May 11:56:47 11:58:30 12° 88° (E) 12:00:12 145.980
Gurwin Techsat 1B 23 May 12:10:55 12:14:22 18° 57° (ENE) 12:17:50 435.225
YUBILEINY 23 May 12:16:29 12:25:12 58° 74° (ENE) 12:33:52 435.215
NO-84 23 May 12:16:48 12:20:44 36° 341° (NNW) 12:24:27 435.350 FM
ESTCUBE 1 23 May 12:18:41 12:23:13 72° 103° (ESE) 12:27:42 437.505/2401.250
SPROUT 23 May 12:18:45 12:21:58 20° 92° (E) 12:25:10 437.525
BUGSAT 1 23 May 12:19:07 12:23:05 64° 73° (ENE) 12:27:04 437.445
EO-79 23 May 12:20:50 12:24:38 33° 263° (W) 12:28:28 145.935-145.965
O/OREOS (USA 219) 23 May 12:32:40 12:34:23 12° 41° (NE) 12:36:06 437.305
DX 1 23 May 12:44:21 12:46:34 14° 90° (E) 12:48:45 434.975-435.025
Oscar 19 23 May 13:01:23 13:06:32 66° 72° (ENE) 13:11:43 437.125/150
NANOSAT C BR1 23 May 13:11:06 13:12:50 12° 272° (W) 13:14:34 145.865
POLYITAN 1 23 May 13:12:39 13:13:48 11° 272° (W) 13:14:59 437.675
AO-85 23 May 13:16:26 13:20:08 35° 45° (NE) 13:23:56 145.980
RS-15 23 May 13:18:25 13:29:18 41° 252° (WSW) 13:39:44 29.354- 29.394
LO-87 23 May 13:23:20 13:24:33 11° 299° (WNW) 13:25:46 145.935 - 145.965
BEESAT 3 23 May 13:23:27 13:26:21 19° 34° (NE) 13:29:13 437.485
50 SAT 23 May 13:29:47 13:33:11 60° 101° (E) 13:36:32 437.505
VELOX 1 23 May 13:31:06 13:35:30 78° 286° (WNW) 13:39:53 145.980
AO-7 23 May 13:33:45 13:40:38 31° 51° (NE) 13:47:33 .
Gurwin Techsat 1B 23 May 13:48:22 13:53:41 81° 256° (WSW) 13:59:02 435.225
SPROUT 23 May 13:54:01 13:58:04 43° 290° (WNW) 14:02:05 437.525
NO-84 23 May 13:55:39 13:59:06 26° 2° (N) 14:02:21 435.350 FM
ITAMSAT 1 23 May 13:56:15 14:00:13 23° 60° (ENE) 14:04:10 435.822/435.867
ESTCUBE 1 23 May 13:56:48 13:59:29 16° 301° (WNW) 14:02:08 437.505/2401.250
BUGSAT 1 23 May 13:57:10 13:58:52 12° 271° (W) 14:00:36 437.445
O/OREOS (USA 219) 23 May 14:10:12 14:14:44 67° 62° (ENE) 14:19:12 437.305
YUBILEINY 23 May 14:13:50 14:21:37 37° 276° (W) 14:29:24 435.215
UKube-1 23 May 14:18:49 14:23:09 86° 105° (ESE) 14:27:28 .
DX 1 23 May 14:18:54 14:23:13 67° 287° (WNW) 14:27:29 434.975-435.025
BEESAT 2 23 May 14:31:53 14:35:25 28° 41° (NE) 14:38:57 435.950
Oscar 19 23 May 14:42:46 14:46:20 19° 270° (W) 14:49:56 437.125/150
AO-85 23 May 14:56:55 15:00:26 29° 242° (WSW) 15:04:07 145.980
BEESAT 3 23 May 15:00:23 15:04:25 79° 234° (SW) 15:08:24 437.485
ITUPSAT 1 23 May 15:03:58 15:07:59 25° 94° (E) 15:11:58 437.325
50 SAT 23 May 15:04:36 15:05:35 11° 299° (WNW) 15:06:34 437.505
VELOX 1 23 May 15:10:14 15:11:11 11° 304° (NW) 15:12:09 145.980
AO-7 23 May 15:24:24 15:32:41 78° 252° (WSW) 15:41:04 .
Gurwin Techsat 1B 23 May 15:32:36 15:34:29 12° 274° (W) 15:36:21 435.225
NO-84 23 May 15:33:37 15:37:23 46° 24° (NNE) 15:40:48 435.350 FM
ITAMSAT 1 23 May 15:34:12 15:39:17 59° 259° (WSW) 15:44:25 435.822/435.867
BEESAT 23 May 15:39:35 15:44:19 55° 101° (E) 15:49:01 436.000
O/OREOS (USA 219) 23 May 15:51:01 15:53:34 15° 261° (W) 15:56:07 437.305
MOZHAYETS 4 23 May 15:54:04 15:58:34 45° 98° (E) 16:03:01
UKube-1 23 May 15:56:43 15:58:32 12° 303° (WNW) 16:00:21 .
DOVE 4 23 May 15:59:44 16:00:54 11° 58° (ENE) 16:02:04 437.250
BEESAT 2 23 May 16:09:28 16:13:19 42° 240° (WSW) 16:17:07 435.950
CUBESAT XI-V 23 May 16:30:54 16:34:30 22° 92° (E) 16:38:04 437.345
XW-2D 23 May 16:32:07 16:32:28 10° 59° (ENE) 16:32:49 145.860 - 145.880
XW-2B 23 May 16:38:50 16:40:14 12° 60° (ENE) 16:41:38 145.730 - 145.750
ITUPSAT 1 23 May 16:41:25 16:45:58 43° 292° (WNW) 16:50:30 437.325
XW-2C 23 May 16:51:13 16:53:34 16° 63° (ENE) 16:55:56 145.795 - 145.815
XW-2F 23 May 16:52:59 16:55:19 16° 63° (ENE) 16:57:41 145.980 - 146.000
HO-68 23 May 17:01:35 17:05:42 16° 46° (NE) 17:09:50 435.675
NUDT-PHONESAT 23 May 17:03:09 17:05:30 16° 63° (ENE) 17:07:52 437.300
CUTE-I 23 May 17:04:15 17:08:43 29° 62° (ENE) 17:13:12 437.470
KAITUO 1B 23 May 17:06:21 17:08:58 18° 64° (ENE) 17:11:35 145.475/437.950
NO-84 23 May 17:11:30 17:14:51 33° 225° (SW) 17:17:55 435.350 FM
KKS-1 23 May 17:13:26 17:17:42 44° 99° (E) 17:21:56 437.445
BEESAT 23 May 17:18:08 17:21:43 21° 299° (WNW) 17:25:19 436.000
AO-7 23 May 17:21:40 17:26:48 18° 273° (W) 17:32:00 .
LilacSat-2 23 May 17:23:52 17:27:23 35° 70° (ENE) 17:30:56 437.200
MOZHAYETS 4 23 May 17:31:45 17:35:28 24° 297° (WNW) 17:39:09
DOVE 4 23 May 17:33:16 17:37:57 80° 75° (ENE) 17:42:23 437.250
CUTE 1.7 + AOD 2 23 May 17:45:43 17:47:18 12° 58° (ENE) 17:48:52 437.475
STARS 23 May 17:54:23 17:58:40 52° 100° (E) 18:02:57 437.465
XW-2D 23 May 18:02:12 18:06:00 86° 255° (WSW) 18:09:52 145.860 - 145.880
CUBESAT XI-V 23 May 18:07:38 18:12:07 47° 290° (WNW) 18:16:33 437.345
XW-2B 23 May 18:10:04 18:13:51 73° 258° (WSW) 18:17:43 145.730 - 145.750
XW-2C 23 May 18:23:42 18:27:23 49° 260° (W) 18:31:08 145.795 - 145.815
XW-2F 23 May 18:25:25 18:29:05 49° 260° (W) 18:32:49 145.980 - 146.000
XW-2A 23 May 18:28:17 18:30:50 20° 67° (ENE) 18:33:24 145.665 - 145.685
NUDT-PHONESAT 23 May 18:35:30 18:39:04 45° 262° (W) 18:42:42 437.300
KAITUO 1B 23 May 18:39:07 18:42:41 41° 262° (W) 18:46:18 145.475/437.950
SEEDS 23 May 18:39:30 18:43:00 25° 66° (ENE) 18:46:30 437.485
CUTE-I 23 May 18:43:28 18:48:33 46° 261° (W) 18:53:41 437.470
HO-68 23 May 18:45:03 18:52:07 64° 67° (ENE) 18:59:14 435.675
KKS-1 23 May 18:50:33 18:54:00 22° 297° (WNW) 18:57:25 437.445
LilacSat-2 23 May 18:58:53 19:01:47 20° 268° (W) 19:04:41 437.200
AO-73 23 May 19:13:06 19:15:31 15° 60° (ENE) 19:17:59 145.935
DOVE 4 23 May 19:14:16 19:16:08 12° 272° (W) 19:17:57 437.250
CUTE 1.7 + AOD 2 23 May 19:18:09 19:22:27 89° 282° (WNW) 19:26:47 437.475
CUBEBUG 2 23 May 19:20:25 19:24:24 47° 71° (ENE) 19:28:28 437.445
ZACube-1 23 May 19:24:07 19:27:15 21° 63° (ENE) 19:30:27 437.345
STARS 23 May 19:31:32 19:34:39 19° 298° (WNW) 19:37:47 437.465
UWE-3 23 May 19:38:04 19:42:02 44° 70° (ENE) 19:46:07 435.000/436.395/437.385
STRAND 1 23 May 19:43:23 19:48:10 37° 97° (E) 19:52:55 437.568
PCSat 23 May 19:48:18 19:53:21 41° 114° (ESE) 19:58:25 145.827
AAUSAT CUBESAT 2 23 May 19:48:52 19:53:00 63° 73° (ENE) 19:57:10 437.432
XW-2A 23 May 20:00:35 20:03:27 26° 264° (W) 20:06:22 145.665 - 145.685
SEEDS 23 May 20:14:37 20:18:32 35° 264° (W) 20:22:28 437.485
Oscar 11 23 May 20:24:29 20:28:46 60° 72° (ENE) 20:33:04 .
HO-68 23 May 20:34:16 20:40:19 29° 267° (W) 20:46:26 435.675
DELFI C3 23 May 20:39:35 20:42:53 25° 66° (ENE) 20:46:11 145.870
AO-73 23 May 20:47:04 20:51:14 66° 259° (W) 20:55:31 145.935
CUBEBUG 2 23 May 20:58:30 21:01:20 18° 270° (W) 21:04:11 437.445
ZACube-1 23 May 20:59:13 21:03:14 44° 262° (W) 21:07:23 437.345
M-CUBED/EXP-1 PRIME 23 May 21:15:45 21:19:00 44° 105° (ESE) 21:22:08 437.505
UWE-3 23 May 21:15:46 21:18:45 19° 269° (W) 21:21:48 435.000/436.395/437.385
ISS 23 May 21:22:23 21:24:31 16° 136° (SE) 21:26:39 437.550
STRAND 1 23 May 21:22:42 21:27:16 33° 295° (WNW) 21:31:50 437.568
Tancredo 1 23 May 21:22:55 21:25:22 22° 140° (SE) 21:27:49 437.200
AAUSAT CUBESAT 2 23 May 21:26:42 21:28:52 14° 271° (W) 21:31:04 437.432
PCSat 23 May 21:31:43 21:36:47 39° 314° (NW) 21:41:53 145.827
EO-88 23 May 21:32:25 21:36:02 66° 74° (ENE) 21:39:42 145.990 - 145.960
ESTCUBE 1 23 May 21:47:06 21:49:14 13° 58° (ENE) 21:51:24 437.505/2401.250
FO-29 23 May 21:56:47 22:02:08 29° 94° (E) 22:08:01 435.910
Oscar 11 23 May 22:02:43 22:05:17 15° 271° (W) 22:07:52 .
DELFI C3 23 May 22:13:58 22:17:33 31° 264° (W) 22:21:09 145.870
TIGRISAT 23 May 22:21:57 22:26:09 35° 97° (E) 22:30:24 435.000
PRISM 23 May 22:25:34 22:29:32 47° 100° (E) 22:33:27 437.425
LO-87 23 May 22:26:58 22:30:18 39° 71° (ENE) 22:33:38 145.935 - 145.965
M-CUBED/EXP-1 PRIME 23 May 22:51:16 22:53:08 14° 304° (NW) 22:54:57 437.505
UNISAT 6 23 May 22:52:28 22:57:02 75° 102° (ESE) 23:01:41 437.425
VELOX 1 23 May 22:56:29 22:59:24 18° 61° (ENE) 23:02:20 145.980
ISS 23 May 22:57:18 23:00:36 86° 154° (SSE) 23:03:54 437.550
Tancredo 1 23 May 22:57:49 23:00:54 70° 339° (NNW) 23:03:59 437.200
EO-88 23 May 23:09:48 23:10:09 10° 272° (W) 23:10:31 145.990 - 145.960
SPROUT 23 May 23:15:03 23:18:25 24° 65° (ENE) 23:21:49 437.525
POLYITAN 1 23 May 23:17:41 23:18:19 10° 87° (E) 23:18:57 437.675
PCSat 23 May 23:19:17 23:21:46 13° 338° (NNW) 23:24:16 145.827
ESTCUBE 1 23 May 23:20:50 23:25:23 87° 254° (WSW) 23:29:58 437.505/2401.250
QB50P2 23 May 23:24:45 23:26:58 14° 89° (E) 23:29:09 145.880/145.840
DUCHIFAT 1 23 May 23:28:22 23:29:31 11° 88° (E) 23:30:40 145.980
YUBILEINY 23 May 23:32:02 23:34:49 12° 68° (ENE) 23:37:36 435.215
SO-50 23 May 23:35:17 23:39:49 67° 124° (SE) 23:44:21 436.795
FO-29 23 May 23:41:27 23:47:27 58° 290° (WNW) 23:54:12 435.910
DX 1 23 May 23:42:30 23:45:36 19° 61° (ENE) 23:48:41 434.975-435.025
UKube-1 23 May 23:42:32 23:44:47 14° 58° (ENE) 23:47:00 .
AIST 2D 23 May 23:57:06 00:00:37 52° 100° (E) 00:04:06 435.315
TIGRISAT 23 May 23:58:50 00:02:44 29° 294° (WNW) 00:06:42 435.000
PRISM 24 May 00:01:39 00:04:29 18° 298° (WNW) 00:07:18 437.425
LO-87 24 May 00:01:44 00:03:55 15° 268° (W) 00:06:07 145.935 - 145.965
EO-79 24 May 00:01:54 00:05:40 30° 96° (E) 00:09:25 145.935-145.965
50 SAT 24 May 00:04:55 00:08:07 36° 70° (ENE) 00:11:20 437.505
